Terug naar catalogus

STARLINK-30441

ActiefCommunicatieVLEO
NORAD 57869·PAYLOAD·🇺🇸 United States

Gelanceerd Sep 16, 2023 vanaf Cape Canaveral Space Force Station

Loading…

Volgende Passages (komende 24 uur)

TLE

VersSource: CelesTrak SupGP

Epoch: Sep 15, 2026, 02:03 UTC

1 57869C 23144F   26258.08590278  .00028366  00000+0  10272-2 0  2587
2 57869  43.0002 295.3544 0001245 270.0308 154.7759 15.27570089    13

Volg STARLINK-30441 in realtime met AllMySat

Download on the App Store